Simultaneous Nadir Overpasses (SNOs) Predictions

Prediction of SNOs between AQUA and METOP-B Satellite Orbit:

Table of predicted SNOs for the next 14.0 days since TLE Epoch: 12/26/2015
Index Date (AQUA) Time (AQUA) Lat,Lon (AQUA) SZA (AQUA ) Date (METOP-B) Time (METOP-B) Lat,Lon (METOP-B) SZA (METOP-B ) Distance(km) Time Diff (sec)
1 12/26/2015 21:41:38 -73.81, 28.81 82.86 12/26/2015 21:41:07 -73.80, 28.91 82.86 2.93 31
2 12/26/2015 22:31:06 73.85,-163.63 97.18 12/26/2015 22:31:46 73.83,-163.70 97.16 2.98 40
3 12/29/2015 17:15:53 -73.80, 95.27 82.99 12/29/2015 17:15:28 -73.81, 95.32 82.98 1.90 25
4 12/29/2015 18:05:21 73.84, -97.18 97.05 12/29/2015 18:06:07 73.83, -97.29 97.04 3.53 46
5 01/01/2016 12:00:28 73.08, -4.41 96.07 01/01/2016 11:59:23 73.00, -7.42 96.09 97.89 65
6 01/01/2016 12:50:08 -73.82, 161.68 83.16 01/01/2016 12:49:49 -73.81, 161.73 83.17 1.75 19
7 01/01/2016 13:39:36 73.86, -30.78 96.89 01/01/2016 13:40:27 73.88, -30.77 96.90 1.84 51
8 01/04/2016 07:34:46 73.33, 61.51 96.09 01/04/2016 07:33:37 73.29, 59.63 96.12 60.35 69
9 01/04/2016 08:24:21 -73.81,-131.85 83.42 01/04/2016 08:24:09 -73.80,-131.88 83.42 0.94 12
10 01/04/2016 09:13:49 73.85, 35.68 96.63 01/04/2016 09:14:47 73.87, 35.62 96.65 2.60 58
11 01/07/2016 03:09:05 73.61, 127.37 96.08 01/07/2016 03:07:53 73.53, 126.57 96.03 26.88 72
12 01/07/2016 03:58:35 -73.82, -65.44 83.71 01/07/2016 03:58:29 -73.84, -65.39 83.69 2.84 6
13 01/07/2016 04:48:03 73.87, 102.09 96.34 01/07/2016 04:49:08 73.86, 101.99 96.33 3.35 65




NCC Satellite Simultaneous Nadir Overpasses (SNOs) Prediction Service
